User: anonymous   Login
Location: �quirre
(50.4736°N, 2.2351°E)
Time: 19:31:15
(UTC+00:00)
Language:

Meteor 1-29 - Orbit

View from above orbital plane
View from above orbital plane
View from above satellite
View from above satellite

Ground track
Ground track

The orbit data is extracted from the following two-line orbital elements,

1 11251U 79005A   20304.28245800 +.00001971 +00000-0 +53134-4 0  9997
2 11251 097.6581 232.9135 0015581 008.1944 351.9552 15.39041495829278
Epoch (UTC): 30 October 2020 06:46:44
Eccentricity: 0.0015581
inclination: 97.6581°
perigee height: 438 km
apogee height: 459 km
right ascension of ascending node: 232.9135°
argument of perigee: 8.1944°
revolutions per day: 15.39041495
mean anomaly at epoch: 351.9552°
orbit number at epoch: 82927

The dashed part of the orbit path shows where the satellite is in the earth's shadow,  

DLR